Location: Home
(42.5358°N, 72.7383°W)
Time: 19:01:57
(UTC-05:00)

Transit 4A - Pass Details

Date: 01 December 2021
Orbit: 863 x 981 km, 66.8° (Epoch: 23 January)

Event Time Altitude Azimuth Distance (km) Brightness Sun altitude
Rises 18:02:59 0° 161° (SSE) 3,438 10.8 -18.7°
Reaches altitude 10° 18:06:17 10° 142° (SE) 2,518 9.9 -19.3°
Enters shadow 18:07:09 13° 135° (SE) 2,338 9.7 -19.4°
Maximum altitude 18:09:54 17° 103° (ESE) 2,075 - -19.9°
Drops below altitude 10° 18:13:34 10° 65° (ENE) 2,567 - -20.6°
Sets 18:16:58 0° 46° (NE) 3,536 - -21.2°
